Regional Weather Roundup
Issued by NWS

Home | Current Version | Previous Version | Graphics & Text | Print | Product List | Glossary On
Versions: 1 2 3 4 5 6 7 8 9 10 11 12 13 14 15 16 17 18 19 20 21 22 23 24 25 26 27 28 29 30 31 32 33 34 35 36 37 38 39 40 41 42 43 44 45 46 47 48 49 50
000
ASUS43 KDTX 232310
RWRMI
MICHIGAN HOURLY REGIONAL WEATHER ROUNDUP
NATIONAL WEATHER SERVICE DETROIT/PONTIAC MI
600 PM EST THU FEB 23 2017

NOTE: "FAIR" INDICATES FEW OR NO CLOUDS BELOW 12,000 FEET WITH NO
SIGNIFICANT WEATHER AND/OR OBSTRUCTION TO VISIBILITY.

MIZ047>049-052>055-059>063-066>070-074>076-081>083-240000-
SOUTHEAST LOWER MICHIGAN

CITY           SKY/WX    TMP DP  RH WIND       PRES   REMARKS
ADRIAN         FAIR      59  44  57 CALM      29.78R
ALMA           FAIR      45  36  69 N7        29.82R
ANN ARBOR      FAIR      58  44  60 N9        29.78R
BAD AXE        CLOUDY    40  35  83 NE8       29.87R WCI  35
CARO           FAIR      47  39  72 N3        29.84R
DETROIT CITY   FAIR      58  41  53 NE13G24   29.79R
DETROIT        MOCLDY    62  39  42 N7        29.79R
FLINT          FAIR      51  39  63 NE10      29.80F
GROSSE ILE     FAIR      56  45  68 CALM      29.77R
HILLSDALE      FAIR      54  43  66 CALM      29.77S
HOWELL         FAIR      52  38  60 NE3       29.79S

CITY           SKY/WX    TMP DP  RH WIND       PRES   REMARKS
JACKSON        FAIR      54  42  64 N12       29.77S
LAMBERTVILLE   FAIR      62  44  51 CALM      29.77R
LANSING        FAIR      50  38  63 NE7       29.80S
LAPEER         FAIR      50  38  63 N7        29.81F
MASON          FAIR      51  43  72 NE5       29.79R
MONROE         FAIR      60  49  66 N7        29.76R
MT. CLEMENS    PTCLDY    47  41  78 N18G25    29.79R
PONTIAC        MOCLDY    54  40  59 N9        29.78S
PORT HOPE        N/A     37  35  92 NE13      29.87R WCI  29
PORT HURON     FAIR      39  36  87 NE15G21   29.85R WCI  31
TRI CITIES     FAIR      45  37  73 N15       29.82F
MIDLAND        FAIR      43  32  65 N6        29.82F
TROY           FAIR      59  38  46 N7        29.80S
SAGINAW HB     FAIR      48  36  61 N8        29.81F
$$
MIZ043>046-050>051-056>058-064>065-071>073-077>080-240000-
SOUTHWEST LOWER MICHIGAN

CITY           SKY/WX    TMP DP  RH WIND       PRES   REMARKS
BATTLE CREEK   FAIR      52  42  69 N3        29.79R
BENTON HARBOR  CLOUDY    39  34  82 N6        29.80R WCI  35
BIG RAPIDS     FAIR      39  32  75 NE5       29.83R
COLDWATER      FAIR      53  45  74 NE6       29.77S
FREMONT        FAIR      43  33  69 NE6       29.83R
HOLLAND        MOCLDY    45  37  73 CALM      29.80S
GRAND RAPIDS   MOCLDY    49  38  65 NE6       29.79R
IONIA          FAIR      49  37  65 NE7       29.80R
KALAMAZOO      FAIR      50  40  68 CALM      29.80R
LUDINGTON      CLOUDY    39  33  78 CALM      29.87R
MARSHALL       FAIR      53  42  65 CALM      29.77S
MOUNT PLEASANT FAIR      41  33  72 N8        29.82F
MUSKEGON       MOCLDY    47  36  65 N10       29.83R
SOUTH HAVEN    FAIR      40  37  87 CALM      29.82R
$$
MIZ016>042-240000-
NORTHERN LOWER MICHIGAN

CITY           SKY/WX    TMP DP  RH WIND       PRES   REMARKS
ALPENA         CLOUDY    39  31  72 W7        29.87R WCI  34
BEAVER ISLAND  FAIR      34  25  68 N7        29.90R WCI  28
BELLAIRE       MOCLDY    36  28  74 CALM      29.90R
CADILLAC       CLOUDY    35  30  80 NE8       29.83F WCI  29
CHARLEVOIX     FAIR      35  28  75 N6        29.92R WCI  30
FRANKFORT      FAIR      37  28  72 N3        29.88R
GAYLORD        CLOUDY    36  26  67 NW3       29.86R
GRAYLING       CLOUDY    37  31  78 NW3       29.88R
HARBOR SPRINGS FAIR      36  25  64 N5        29.88S WCI  32
HOUGHTON LAKE  CLOUDY    36  31  82 NW6       29.85F WCI  31
MANISTEE       CLOUDY    39  30  70 VRB6      29.89R WCI  35
OSCODA         MOCLDY    43  32  66 N8        29.86R
PELLSTON       FAIR      37  24  59 N10       29.89R WCI  30
ROGERS CITY    CLOUDY    35  30  80 NW9       29.89R WCI  28
TRAVERSE CITY  MOCLDY    37  28  70 NE9       29.88R WCI  30
$$
MIZ007>008-015-240000-
EASTERN UPPER MICHIGAN

CITY           SKY/WX    TMP DP  RH WIND       PRES   REMARKS
KINROSS        CLOUDY    31  22  69 NW8       29.90R WCI  23
MACKINAC ISLAN MOCLDY    34  27  76 N9        29.88S WCI  26
NEWBERRY       MOCLDY    31  21  66 N6        29.90R WCI  25
S. S. MARIE    FAIR      33  21  61 NW10      29.89R WCI  25
MUNISING         N/A     34  23  64 N9        29.91R WCI  27
$$
MIZ004>006-011>014-085-240000-
CENTRAL UPPER MICHIGAN

CITY           SKY/WX    TMP DP  RH WIND       PRES   REMARKS
MANISTIQUE     FAIR      33  22  64 N8        29.90R WCI  26
ESCANABA       FAIR      36  24  62 N7        29.90R WCI  30
MENOMINEE      MOCLDY    34  27  75 E10       29.90R WCI  26
SAWYER-GWINN   MOCLDY    32  27  80 NE6       29.89R WCI  26
$$
MIZ001>003-009>011-084-240000-
WESTERN UPPER MICHIGAN

CITY           SKY/WX    TMP DP  RH WIND       PRES   REMARKS
IRON MOUNTAIN  FAIR      35  23  61 N7        29.87R WCI  29
HOUGHTON       CLOUDY    31  22  69 W17       29.89R WCI  19
COPPER HARBOR    N/A     33  23  66 N10       29.91R WCI  25
IRONWOOD       FAIR      28  25  86 NW7       29.93R WCI  21
$$

ABBREVIATIONS USED IN REMARKS
   TC - TEMPERATURE IN CELSIUS
  WCI - WIND CHILL INDEX
   HX - HEAT INDEX
  VSB - VISIBILITY





USA.gov is the U.S. government's official web portal to all federal, state and local government web resources and services.